Temperature
21 19 18 19 19 20 20 20 20 20 20 20 19 18 18 19 19 19 19 19 19 19 19 19 19 19 19 18 18 18 18 17 17 17 17 16 16 16 16 16 16 15 15 15
18 19 20 21 21 21 20 19 19 20 20 20 18 18 18 18 19 19 18 18 19 19 19 19 19 19 19 18 18 18 18 18 17 17 17 16 16 16 16 16 16 15 15 15
19 20 21 21 21 21 20 19 19 19 20 19 19 17 17 18 19 19 18 19 19 18 18 18 18 18 18 18 18 18 18 17 17 17 17 16 16 16 16 16 15 15 15 15
20 21 21 21 21 20 19 20 20 20 18 17 18 16 17 17 17 17 17 18 18 18 18 18 18 18 18 18 18 17 17 17 17 17 17 16 16 16 15 15 15 15 15 15
20 20 20 20 21 21 20 21 20 20 18 17 17 16 16 16 16 16 17 17 18 18 18 18 18 18 17 17 17 17 17 17 17 17 16 16 16 16 15 15 15 15 15 15
20 21 21 21 21 21 20 19 18 16 16 17 17 16 16 15 16 16 16 17 17 17 18 18 18 17 17 17 17 17 17 17 17 16 16 16 16 15 15 15 15 15 15 15
19 20 21 21 20 20 19 16 16 16 15 16 17 16 16 16 17 17 16 17 17 17 17 17 17 17 17 17 17 17 17 17 16 16 16 16 16 15 15 15 15 15 15 14
18 18 20 21 20 19 19 17 16 16 16 16 17 16 16 17 17 18 17 17 17 17 17 17 17 17 17 17 17 17 16 16 16 16 16 15 15 15 15 15 15 14 14 14
17 18 20 21 21 20 19 17 16 15 16 16 16 16 17 17 16 16 16 16 16 16 17 16 17 17 17 17 17 16 16 16 16 16 15 15 15 15 15 14 14 14 14 14
18 18 19 20 20 20 19 17 15 16 16 15 16 16 15 16 16 16 15 16 16 16 16 16 16 16 16 16 16 16 16 15 15 15 15 15 15 15 14 14 14 14 14 14
18 17 18 19 19 18 19 18 16 14 14 15 15 15 16 16 16 15 15 16 16 16 16 16 16 16 16 15 15 15 15 15 15 15 15 14 14 14 14 14 14 13 13 13
17 15 15 17 18 18 18 18 16 15 15 14 13 14 16 16 16 16 16 16 16 16 16 16 15 15 15 15 15 15 15 15 14 14 14 14 14 13 13 13 13 13 13 13
16 15 15 16 16 17 18 17 16 15 14 13 13 15 15 15 15 16 15 15 15 15 15 15 15 15 15 14 14 14 14 14 14 14 13 13 13 13 13 13 13 13 13 12
16 14 14 15 15 16 16 17 17 15 14 14 14 15 15 14 14 15 15 15 15 15 14 14 14 14 14 14 14 14 14 14 13 13 13 13 13 12 12 12 12 12 12 12
15 15 15 15 16 16 16 16 16 16 15 14 14 14 15 14 14 15 15 14 14 14 14 14 14 14 14 14 14 13 13 13 13 13 13 12 12 12 12 12 12 12 12 12
14 15 15 15 16 16 16 16 16 16 16 15 15 14 15 15 15 14 14 14 14 14 14 14 14 13 13 13 13 13 13 13 12 12 12 12 12 12 12 11 11 11 11 11
13 14 14 13 14 15 15 15 15 15 15 15 14 14 14 13 14 14 14 14 14 14 13 13 13 13 13 13 13 13 12 12 12 12 12 12 11 11 11 11 11 11 11 11
13 13 12 12 14 14 15 15 16 15 15 15 14 14 14 14 14 14 14 14 14 13 13 13 13 13 13 12 12 12 12 12 12 12 11 11 11 11 11 10 10 10 10 10
13 13 12 12 13 13 15 15 16 15 14 14 13 13 14 14 13 13 14 14 14 13 13 13 12 12 12 12 12 11 11 11 11 11 11 10 10 10 10 10 10 10 10 9
12 12 12 11 13 13 14 15 16 15 14 14 13 13 13 13 11 11 13 13 13 13 12 12 12 12 12 11 11 11 11 11 10 10 10 10 10 9 9 9 9 9 9 9
13 12 11 11 12 12 13 15 15 14 13 14 14 13 13 13 12 13 13 13 13 12 12 11 11 11 11 11 10 10 10 10 10 9 9 9 9 9 9 9 9 9 8 9
12 11 11 10 11 12 14 14 13 13 14 14 14 14 14 14 13 13 12 12 12 12 11 11 11 10 10 10 10 10 9 9 9 9 9 8 8 8 8 8 8 8 8 8
11 11 11 11 12 13 14 14 15 15 14 14 14 14 14 13 13 12 12 12 11 11 11 10 10 10 9 9 9 9 9 9 8 8 8 8 8 8 7 7 7 7 7 7
11 11 10 11 11 12 13 14 14 14 14 14 14 13 13 13 12 12 11 11 11 10 10 10 9 9 9 9 8 8 8 8 8 8 7 7 7 7 7 7 7 7 6 6
10 11 10 10 11 12 13 13 13 13 14 13 13 13 13 12 12 11 11 11 10 10 10 9 9 9 8 8 8 8 8 7 7 7 7 7 6 6 6 6 6 6 6 6
9 10 10 10 11 11 12 13 13 13 13 13 12 12 12 12 11 11 11 10 10 9 9 9 9 8 8 8 7 7 7 7 7 7 6 6 6 6 5 5 5 5 5 5
Wind_Speed
3 4 2 5 6 4 4 3 2 3 3 2 2 2 3 3 2 3 4 5 5 4 2 3 4 5 5 5 5 5 5 4 3 2 2 2 1 1 1 2 3 4 5 5
5 1 6 4 2 1 3 2 0 2 1 2 2 1 3 1 2 4 6 6 6 4 2 2 3 4 5 5 4 4 4 4 4 3 2 2 2 1 1 1 2 3 3 4
4 5 2 1 1 2 2 3 2 2 2 2 2 3 3 3 0 2 3 4 5 6 6 4 4 3 4 4 4 4 3 3 4 4 3 2 2 2 2 2 1 2 3 3
2 2 1 1 1 2 2 3 3 2 1 2 1 2 6 3 2 1 2 2 3 4 4 4 5 4 4 4 4 3 4 3 3 4 4 4 3 2 1 1 1 2 2 3
2 1 1 2 3 2 4 3 2 1 1 1 1 2 6 2 2 4 3 4 4 4 5 4 5 5 4 4 4 3 3 3 3 4 5 4 3 2 1 1 1 1 2 2
3 2 2 3 2 1 2 4 5 5 4 2 4 4 4 3 6 4 3 4 4 4 3 3 4 4 3 3 3 3 3 3 3 4 4 5 4 3 3 2 1 0 0 1
3 3 2 1 1 3 5 6 4 4 3 5 2 3 5 5 4 7 7 6 4 4 4 3 3 4 3 3 3 3 3 2 2 3 4 4 5 4 4 3 2 1 0 0
1 4 4 2 3 3 2 7 6 3 4 5 3 2 4 3 1 4 5 5 4 4 4 4 4 4 4 4 3 3 3 2 2 3 3 3 3 3 3 3 3 3 2 2
2 4 4 2 2 5 3 3 6 5 1 2 3 3 3 4 3 3 4 4 4 4 4 4 3 3 3 3 3 3 3 1 1 2 2 2 2 3 3 2 2 2 2 1
3 2 4 3 2 2 4 5 5 3 1 3 4 3 3 2 2 2 3 3 4 4 4 3 3 3 3 3 3 3 3 2 1 1 1 2 2 2 3 2 2 2 2 1
3 2 4 2 3 4 1 2 3 3 4 4 3 5 4 6 5 5 5 5 4 4 5 4 3 2 2 2 2 2 2 2 2 1 1 1 0 1 2 2 2 2 2 2
2 4 2 6 5 3 4 4 5 4 3 4 3 6 5 4 4 5 4 3 2 3 4 4 3 2 2 1 2 2 2 2 2 2 2 1 0 0 1 2 2 2 2 2
3 4 2 6 6 4 1 1 3 4 4 4 4 6 4 1 0 1 3 2 2 2 2 2 2 2 2 2 2 2 2 2 2 2 2 1 0 0 1 2 2 2 2 2
4 4 5 6 5 3 3 4 1 4 3 4 6 6 4 3 2 2 3 3 2 2 2 1 1 1 1 1 2 2 1 2 2 2 2 1 1 2 2 2 1 1 2 2
4 2 4 5 5 3 3 5 3 4 6 7 7 6 8 7 6 5 4 3 2 2 1 1 1 1 1 1 1 1 1 1 1 1 1 2 2 1 1 1 1 1 1 2
3 2 1 3 4 3 4 6 6 6 5 5 5 7 6 4 3 3 4 4 2 2 2 1 1 0 1 1 1 1 1 1 1 1 1 1 0 1 1 1 1 1 2 2
1 3 2 4 5 4 5 6 6 5 4 5 7 8 4 2 4 5 5 4 4 2 1 1 1 1 1 1 1 1 1 0 1 0 1 1 0 1 1 2 1 2 2 2
5 4 3 2 2 5 7 4 3 3 2 2 2 2 4 5 4 3 4 5 4 3 2 1 1 1 1 1 0 0 1 1 2 2 2 1 1 1 2 1 2 3 2 3
6 6 3 2 3 6 7 5 2 3 2 2 1 1 2 3 4 2 1 2 3 3 2 2 1 1 1 1 1 2 2 1 1 1 2 2 1 2 2 2 3 3 3 3
3 4 5 3 3 5 7 6 3 3 2 3 1 3 3 4 2 3 2 1 2 1 1 1 1 2 2 1 1 2 1 1 1 2 2 2 1 2 3 4 4 3 2 3
1 1 3 5 5 7 6 4 2 2 6 4 3 4 4 4 4 3 2 2 2 2 2 1 2 2 1 1 1 1 1 1 2 2 2 2 2 3 3 3 3 2 2 2
5 4 4 4 4 7 4 2 3 5 3 2 2 2 3 2 2 2 3 2 2 1 1 1 1 1 2 1 1 1 1 3 2 1 2 3 3 3 3 2 3 2 2 2
4 6 5 6 6 4 1 3 3 3 2 2 2 2 3 2 2 2 2 2 1 1 0 0 1 1 2 1 1 0 3 3 2 2 2 3 3 4 4 3 2 2 2 2
4 0 2 2 3 3 2 1 1 1 3 3 3 3 3 2 2 2 2 2 1 1 1 0 1 0 2 2 1 1 2 2 2 2 3 3 3 3 3 3 2 2 2 2
4 1 1 3 4 4 4 3 2 1 1 1 1 3 4 4 3 3 3 3 2 2 1 1 1 1 2 2 2 2 2 2 2 2 3 3 2 2 2 3 3 3 3 4
4 4 4 6 6 5 7 7 4 3 3 3 2 2 2 3 4 3 2 2 2 2 1 1 1 1 1 2 2 3 2 1 1 2 2 2 2 2 2 3 4 5 5 7
Wind_Direction
34 74 168 210 203 193 169 149 188 223 210 159 184 208 245 248 160 167 170 168 164 177 178 128 127 126 120 125 130 134 129 137 127 117 121 118 119 102 56 53 75 87 94 102
46 251 232 214 193 152 138 131 222 290 265 156 156 239 265 251 184 176 171 177 180 172 122 110 106 108 122 137 138 135 141 142 147 142 145 153 146 159 149 36 47 76 90 102
167 242 252 157 124 106 117 155 210 240 350 20 100 332 306 298 16 120 153 161 166 167 163 151 125 120 128 135 152 152 147 145 141 137 118 92 72 48 31 19 15 23 77 90
205 270 101 136 210 152 223 220 205 203 79 278 143 252 285 260 278 217 189 154 161 164 156 152 145 142 146 158 153 150 153 142 142 136 127 128 131 138 226 234 7 4 47 77
240 223 154 202 229 175 212 217 209 215 171 324 287 168 282 269 243 234 203 179 169 158 154 155 157 162 159 152 147 147 142 143 133 138 139 135 124 152 146 111 80 13 7 35
239 233 187 212 256 179 121 45 31 41 72 297 245 176 276 238 223 209 200 186 174 155 149 157 165 148 143 133 130 135 131 141 144 142 143 145 148 148 126 120 116 7 3 15
318 307 290 156 42 9 74 76 32 1 2 259 250 160 247 255 225 187 184 179 173 155 144 145 149 147 145 140 131 122 131 139 155 152 161 166 167 164 163 168 174 170 157 253
220 281 267 232 180 186 161 135 152 197 236 281 338 221 265 294 200 158 158 158 152 158 158 158 160 156 150 150 146 135 136 161 167 163 179 179 171 171 181 184 178 185 205 221
175 260 279 244 170 144 132 174 176 153 240 278 290 291 319 18 65 112 122 126 160 175 169 163 157 144 147 153 160 159 153 138 172 175 163 161 164 168 180 191 185 193 205 220
153 249 290 291 44 35 155 156 94 117 182 269 292 274 252 255 217 187 170 176 184 179 172 160 159 158 161 168 160 139 137 146 158 153 153 154 176 183 179 174 192 212 223 218
102 146 309 350 200 215 154 111 117 133 160 171 259 271 239 214 207 197 203 201 188 180 177 172 170 167 154 140 133 134 141 139 140 147 131 113 203 194 180 183 211 216 218 213
95 123 257 269 273 218 174 182 151 162 232 182 188 263 286 231 216 197 204 208 197 179 175 165 158 144 123 139 154 161 169 167 180 173 150 137 212 145 187 216 224 210 211 223
99 102 38 337 338 358 19 272 163 145 141 174 193 256 312 341 22 179 184 188 185 169 153 148 141 148 159 166 171 178 178 184 185 165 158 155 279 262 238 239 240 222 214 222
107 114 162 207 233 254 285 290 237 143 176 220 222 241 287 287 247 232 198 187 177 165 143 141 154 184 190 179 173 172 177 176 155 141 152 188 241 248 251 252 251 235 215 210
98 154 212 233 244 238 249 271 259 225 211 208 231 230 246 232 216 211 191 168 155 173 163 159 195 220 201 194 193 183 180 178 151 139 164 228 244 252 282 287 270 266 248 230
90 163 254 287 276 280 286 275 259 247 236 223 233 254 247 221 191 175 175 164 173 198 207 213 207 225 235 217 221 210 218 249 151 138 215 249 287 312 297 284 284 294 298 278
143 146 144 273 294 335 289 259 240 228 224 207 227 238 211 175 185 188 185 181 186 193 193 206 224 233 250 233 190 191 228 200 92 71 324 302 268 295 292 296 315 302 288 285
159 142 152 240 351 248 253 270 225 201 262 273 233 206 184 178 182 181 170 175 186 179 169 203 278 291 292 298 333 95 67 80 67 34 358 340 335 313 302 292 273 273 270 265
166 152 146 153 225 274 288 290 246 189 278 310 152 137 106 113 76 7 258 176 179 179 185 215 244 296 343 356 13 79 63 62 46 357 320 313 321 313 305 291 272 263 255 257
97 118 139 152 194 239 257 282 293 118 271 293 158 156 155 108 107 261 269 156 120 99 85 79 56 52 42 346 64 81 45 49 341 293 289 289 298 290 282 281 281 274 254 262
60 96 170 190 220 257 262 286 58 145 252 265 195 180 173 178 205 217 185 131 128 123 98 93 88 64 352 343 87 92 37 296 280 284 302 302 299 292 286 288 287 283 282 286
190 189 202 174 205 254 273 119 168 223 240 214 193 189 179 176 148 149 159 151 129 101 97 97 79 18 336 358 67 54 289 283 299 317 321 319 317 313 315 305 305 301 288 284
200 198 197 193 214 247 236 188 219 180 185 213 198 193 151 150 164 169 170 159 152 156 171 88 122 5 332 329 83 353 306 314 325 329 319 316 322 325 320 310 303 307 298 277
286 213 157 241 266 278 293 317 328 182 198 210 192 183 169 175 182 172 164 168 175 220 200 187 122 36 320 322 341 314 318 344 3 332 315 311 314 318 324 326 317 301 283 276
247 234 197 258 280 316 308 296 273 253 188 160 189 202 189 173 188 196 199 200 197 198 216 188 178 220 281 311 332 328 342 14 8 343 330 325 319 312 324 327 317 304 282 268
224 203 206 241 239 229 257 263 258 221 219 209 207 225 205 185 193 200 197 203 200 199 201 200 222 229 274 308 322 319 332 17 4 339 328 317 317 319 318 316 320 317 301 300
Height
1521 1526 1531 1528 1527 1527 1529 1533 1535 1532 1526 1530 1533 1534 1531 1530 1530 1530 1531 1532 1533 1534 1535 1535 1536 1536 1537 1538 1539 1539 1539 1540 1540 1540 1539 1539 1539 1539 1539 1538 1538 1537 1537 1536
1527 1529 1523 1522 1523 1524 1528 1533 1535 1530 1526 1529 1534 1535 1531 1529 1529 1530 1530 1531 1531 1532 1533 1534 1535 1536 1536 1537 1538 1538 1539 1539 1539 1539 1539 1539 1539 1539 1539 1538 1538 1538 1537 1536
1528 1525 1520 1522 1524 1526 1529 1532 1533 1533 1529 1529 1533 1539 1534 1530 1529 1529 1529 1529 1530 1531 1532 1533 1534 1535 1535 1536 1537 1538 1538 1539 1539 1539 1539 1539 1538 1538 1538 1538 1537 1537 1537 1536
1524 1521 1521 1523 1525 1525 1532 1525 1526 1529 1536 1542 1538 1552 1538 1532 1530 1528 1529 1528 1529 1530 1531 1532 1533 1534 1534 1535 1536 1537 1537 1537 1538 1538 1537 1537 1537 1537 1537 1537 1536 1536 1536 1536
1525 1521 1522 1524 1522 1522 1525 1521 1524 1527 1534 1541 1540 1549 1544 1533 1533 1530 1528 1528 1528 1529 1530 1531 1532 1533 1533 1534 1535 1535 1536 1536 1536 1536 1536 1536 1536 1536 1536 1536 1536 1536 1535 1535
1522 1519 1519 1520 1519 1519 1520 1525 1528 1534 1541 1551 1542 1547 1547 1536 1530 1528 1527 1527 1527 1528 1528 1529 1530 1531 1532 1533 1533 1534 1534 1534 1534 1535 1535 1534 1534 1534 1534 1534 1534 1534 1534 1534
1527 1522 1519 1518 1521 1521 1525 1539 1553 1555 1558 1553 1538 1543 1542 1527 1523 1523 1524 1525 1526 1527 1527 1528 1528 1529 1530 1531 1531 1532 1532 1532 1533 1533 1533 1533 1533 1533 1533 1533 1533 1532 1532 1532
1537 1536 1522 1519 1521 1525 1527 1536 1555 1562 1561 1553 1540 1542 1535 1523 1521 1521 1522 1523 1524 1525 1526 1526 1527 1527 1528 1529 1530 1530 1530 1530 1531 1531 1531 1531 1531 1531 1531 1531 1531 1530 1530 1530
1537 1535 1520 1517 1517 1520 1528 1534 1535 1547 1548 1553 1547 1539 1530 1525 1523 1523 1523 1523 1524 1524 1524 1524 1525 1525 1526 1527 1527 1528 1528 1528 1529 1529 1529 1529 1529 1529 1528 1529 1528 1528 1528 1528
1528 1533 1524 1518 1518 1519 1522 1527 1540 1547 1555 1559 1550 1544 1541 1530 1526 1524 1523 1523 1522 1523 1523 1523 1524 1524 1524 1525 1525 1526 1526 1526 1526 1526 1526 1526 1526 1526 1526 1526 1526 1526 1525 1525
1525 1533 1531 1524 1525 1526 1525 1529 1535 1545 1548 1557 1558 1549 1527 1525 1523 1523 1522 1521 1521 1521 1522 1522 1523 1523 1523 1523 1523 1524 1524 1524 1524 1523 1523 1523 1523 1523 1523 1523 1523 1522 1522 1522
1526 1534 1538 1530 1521 1518 1521 1525 1534 1545 1547 1549 1555 1548 1522 1521 1520 1520 1521 1520 1520 1521 1521 1521 1521 1521 1521 1521 1522 1522 1522 1522 1521 1521 1521 1521 1521 1521 1520 1520 1520 1520 1519 1519
1525 1535 1544 1540 1534 1525 1524 1524 1527 1534 1542 1549 1552 1543 1522 1520 1519 1519 1520 1520 1520 1520 1520 1520 1520 1520 1519 1519 1520 1519 1519 1519 1519 1519 1519 1518 1518 1518 1517 1517 1517 1517 1516 1516
1523 1534 1542 1546 1539 1532 1529 1526 1525 1531 1542 1543 1539 1533 1525 1522 1520 1519 1519 1519 1519 1520 1519 1519 1518 1518 1518 1518 1518 1518 1518 1517 1517 1517 1516 1516 1515 1515 1514 1514 1513 1513 1513 1512
1524 1533 1532 1531 1528 1527 1527 1525 1524 1527 1529 1534 1530 1527 1522 1519 1518 1517 1518 1518 1518 1518 1518 1518 1517 1517 1516 1516 1516 1516 1516 1515 1515 1514 1514 1513 1513 1512 1511 1510 1510 1510 1509 1509
1525 1531 1531 1531 1526 1525 1526 1523 1522 1522 1522 1523 1523 1522 1515 1515 1516 1516 1516 1516 1517 1517 1516 1516 1515 1515 1515 1514 1514 1514 1513 1513 1513 1512 1511 1511 1510 1509 1508 1507 1507 1506 1506 1505
1527 1531 1535 1538 1530 1527 1530 1521 1519 1518 1516 1518 1521 1517 1513 1514 1515 1514 1514 1515 1515 1515 1515 1514 1514 1513 1513 1513 1512 1512 1511 1511 1510 1510 1509 1508 1507 1506 1505 1504 1503 1503 1502 1502
1526 1530 1537 1538 1534 1539 1526 1513 1513 1514 1514 1512 1511 1511 1510 1511 1512 1513 1513 1513 1513 1514 1513 1513 1512 1512 1511 1511 1510 1510 1509 1509 1508 1507 1506 1505 1504 1503 1502 1500 1499 1499 1498 1498
1518 1526 1535 1540 1540 1534 1521 1513 1511 1513 1515 1511 1511 1510 1510 1510 1512 1513 1513 1513 1513 1513 1512 1512 1511 1511 1510 1509 1508 1508 1507 1506 1505 1504 1503 1502 1501 1500 1498 1497 1495 1494 1494 1493
1519 1522 1532 1538 1539 1538 1523 1511 1508 1511 1517 1511 1510 1510 1510 1510 1515 1514 1511 1511 1511 1511 1511 1511 1510 1509 1508 1507 1506 1505 1504 1503 1502 1501 1500 1499 1498 1496 1495 1493 1492 1491 1490 1490
1525 1528 1532 1535 1536 1528 1515 1509 1509 1521 1520 1510 1509 1508 1508 1508 1510 1510 1509 1509 1509 1509 1509 1509 1508 1507 1506 1505 1504 1503 1502 1501 1500 1499 1497 1496 1495 1493 1492 1490 1489 1487 1487 1486
1525 1529 1531 1533 1535 1529 1510 1509 1513 1514 1509 1508 1508 1507 1507 1507 1507 1508 1508 1508 1508 1507 1507 1507 1506 1505 1504 1503 1502 1500 1499 1498 1497 1496 1494 1493 1492 1490 1489 1487 1485 1484 1483 1482
1520 1520 1520 1521 1520 1512 1508 1508 1508 1508 1507 1507 1507 1507 1506 1506 1506 1506 1506 1506 1506 1506 1506 1505 1504 1503 1502 1501 1500 1498 1497 1495 1494 1493 1491 1490 1489 1487 1486 1484 1482 1481 1480 1479
1516 1513 1515 1515 1511 1509 1508 1507 1506 1506 1506 1505 1505 1505 1504 1504 1504 1504 1505 1505 1504 1504 1504 1503 1501 1500 1499 1498 1497 1496 1494 1493 1491 1490 1488 1487 1485 1484 1482 1481 1479 1478 1477 1475
1514 1513 1514 1513 1510 1508 1506 1506 1506 1505 1504 1503 1503 1503 1502 1502 1502 1502 1502 1502 1502 1501 1501 1500 1499 1497 1496 1495 1494 1493 1492 1490 1488 1487 1485 1484 1482 1481 1479 1478 1476 1475 1473 1472
1510 1510 1512 1510 1506 1506 1504 1503 1503 1502 1501 1501 1500 1500 1500 1500 1500 1500 1499 1499 1499 1499 1498 1497 1496 1495 1494 1492 1491 1491 1489 1487 1485 1483 1482 1481 1479 1477 1476 1474 1472 1471 1470 1468